Vorticity
9 9 7 7 7 8 0 6 8 14 2 9 -3 8 14 18 -86 35 7 2 7 8 9 -2 15 3 5 1 6 9 6 4 8 5 5 5 3 4 4 5 5 8 7 8
6 3 6 12 4 11 0 3 7 0 17 13 6 7 5 -2 23 27 -23 37 0 10 7 5 13 4 5 -0 7 12 6 6 7 6 6 4 4 4 6 6 8 10 7 6
3 26 4 10 6 10 8 1 5 7 5 10 3 17 2 -11 -1 23 18 18 6 9 9 4 3 14 13 -1 6 15 10 6 7 6 5 5 5 5 7 7 7 7 8 8
7 -27 40 4 9 9 8 6 3 3 2 14 4 11 6 9 7 7 -5 10 13 2 13 1 3 1 20 10 7 14 12 7 7 4 6 6 6 6 5 5 6 8 7 7
13 22 -16 19 6 11 10 15 6 6 2 4 23 -2 16 6 2 0 10 9 32 2 12 5 -3 6 3 12 8 12 11 8 8 5 5 5 7 7 6 7 7 8 8 7
-11 -2 18 -9 22 9 9 9 14 7 5 28 16 -13 26 7 6 10 5 8 8 13 5 7 4 11 7 4 10 9 13 9 8 7 6 8 7 5 5 4 5 5 6 8
15 -2 -11 17 -7 18 9 4 27 16 34 -10 15 -0 -9 23 25 4 11 3 8 12 5 8 2 5 11 -0 22 9 13 13 10 8 6 9 8 3 4 4 4 6 5 7
3 43 7 18 16 7 3 10 -33 11 13 24 -7 29 8 1 7 -8 36 0 12 11 6 8 8 -0 8 4 2 20 11 13 9 8 7 4 7 7 3 4 6 3 4 5
24 -13 45 -11 11 9 28 3 -1 -16 14 -2 19 5 7 17 6 4 28 8 4 10 17 3 8 7 17 4 -0 9 23 16 10 7 8 4 5 7 6 7 4 4 3 4
-7 9 -10 25 -10 17 -12 10 1 -2 8 3 39 25 7 15 15 6 1 13 9 9 4 11 9 -2 7 16 2 5 14 19 15 12 9 10 7 8 12 9 4 2 7 6
-5 -18 15 -1 22 -8 16 12 6 -5 -15 -11 12 42 53 5 12 24 3 -4 19 11 14 4 10 6 -3 5 11 2 8 15 20 18 17 13 9 6 11 11 7 6 5 8
24 17 3 31 -1 22 6 9 5 -23 36 8 -26 -19 8 78 18 22 -4 15 3 11 23 10 4 19 2 4 14 7 3 -2 9 9 11 13 8 6 7 7 7 6 6 2
14 85 9 32 52 16 0 5 1 13 -14 15 -19 16 9 23 40 20 11 44 4 6 13 -0 9 15 5 5 10 14 8 6 2 3 4 8 10 13 13 9 4 5 4 3
14 20 29 -24 11 47 8 5 14 2 3 6 10 -10 8 6 13 19 28 7 17 15 -14 10 10 5 11 0 4 1 7 7 4 3 4 4 4 4 7 9 13 11 11 17
31 12 14 28 20 39 7 8 8 6 2 -11 22 -11 9 11 10 19 19 31 15 26 33 17 10 9 -8 19 11 6 8 13 11 1 10 8 9 6 4 6 4 6 7 5
15 47 14 29 13 8 53 14 15 12 3 16 -4 15 -5 18 22 4 6 4 6 7 11 11 7 5 36 20 -3 2 5 23 17 12 21 29 12 -2 5 3 7 6 2 3
18 14 25 21 11 15 6 48 9 9 8 2 12 0 -7 5 9 2 2 6 8 22 2 8 32 13 -12 -4 -0 3 -2 3 9 8 3 2 5 10 30 6 1 4 6 6
6 7 20 25 26 20 16 15 2 51 7 6 -1 8 -15 15 23 3 5 6 6 3 5 6 12 12 33 20 12 9 4 14 -2 0 -0 3 -2 -0 20 28 12 4 5 5
6 7 18 14 19 23 5 32 4 5 65 24 -5 -3 12 0 12 8 4 6 7 5 2 8 15 8 10 7 25 9 6 22 10 5 0 -0 1 7 4 24 25 9 4 9
10 5 6 -5 30 24 -2 2 19 -5 3 -4 23 6 13 7 9 -1 -3 7 -1 15 8 13 9 14 4 19 2 1 18 5 8 3 3 5 3 2 4 16 17 24 3 3
2 9 8 4 0 3 -0 36 43 22 -10 27 27 15 13 14 19 17 21 5 7 2 11 5 8 7 7 2 17 2 -8 4 3 13 12 7 5 7 6 4 18 16 17 2
18 -4 9 6 2 -7 21 -2 43 12 15 14 13 19 16 13 -10 13 17 14 18 6 13 12 3 4 4 4 7 7 12 13 4 5 8 8 11 12 9 6 16 13 19 12
22 17 34 16 8 -65 -13 3 12 -6 30 -5 -1 18 -15 33 20 17 19 3 -18 25 18 18 18 6 1 19 11 10 16 15 10 6 7 14 10 9 15 16 12 12 11 16
30 -8 12 14 21 1 17 -4 -10 0 9 -11 9 -18 11 15 29 28 -1 8 11 4 17 7 29 30 14 16 5 4 10 8 10 2 8 20 14 11 16 16 11 14 17 13
7 -0 4 16 16 6 4 3 -3 2 4 1 17 -14 23 8 5 11 13 24 7 18 19 17 11 10 26 12 8 4 8 16 23 7 6 5 13 6 12 17 13 11 11 10
11 8 3 7 4 0 8 16 16 6 12 1 5 15 14 17 4 -1 5 9 6 1 4 7 11 12 13 27 18 9 15 -2 20 13 9 9 7 9 10 9 14 20 22 23
Height
3103 3107 3099 3105 3112 3119 3122 3123 3124 3124 3127 3129 3131 3133 3134 3137 3135 3135 3143 3145 3147 3155 3161 3165 3169 3173 3176 3177 3179 3184 3187 3190 3194 3197 3200 3203 3206 3208 3210 3213 3213 3216 3217 3219
3100 3089 3099 3107 3111 3115 3117 3117 3117 3121 3121 3124 3127 3128 3132 3131 3132 3131 3139 3139 3142 3152 3158 3161 3164 3168 3171 3172 3176 3181 3185 3188 3192 3196 3200 3202 3205 3207 3210 3212 3213 3215 3217 3219
3083 3085 3097 3100 3103 3107 3109 3112 3114 3115 3118 3119 3124 3126 3127 3127 3133 3134 3134 3128 3140 3142 3152 3156 3159 3163 3166 3168 3172 3178 3182 3186 3190 3194 3197 3200 3203 3205 3208 3210 3212 3214 3216 3218
3081 3088 3088 3093 3095 3101 3102 3109 3113 3113 3113 3113 3117 3117 3121 3125 3130 3130 3134 3138 3132 3138 3147 3153 3156 3159 3162 3165 3170 3175 3179 3183 3188 3191 3195 3198 3202 3205 3207 3209 3211 3213 3215 3216
3067 3076 3082 3084 3087 3096 3098 3105 3109 3111 3110 3110 3108 3112 3112 3118 3122 3125 3128 3130 3130 3137 3140 3148 3151 3156 3159 3163 3166 3171 3176 3179 3184 3188 3192 3196 3199 3203 3205 3207 3208 3211 3213 3215
3067 3074 3078 3081 3086 3091 3098 3102 3104 3108 3108 3102 3102 3105 3106 3109 3115 3120 3124 3129 3131 3136 3137 3143 3149 3153 3156 3160 3162 3166 3172 3176 3180 3184 3188 3192 3196 3199 3202 3205 3207 3208 3211 3213
3062 3062 3070 3075 3081 3085 3091 3095 3095 3095 3095 3092 3103 3102 3099 3104 3108 3116 3119 3123 3129 3132 3138 3140 3145 3148 3152 3155 3158 3162 3168 3173 3177 3181 3185 3189 3193 3196 3200 3203 3205 3207 3209 3211
3048 3053 3055 3062 3067 3074 3079 3084 3081 3085 3086 3094 3100 3092 3092 3101 3104 3110 3112 3117 3124 3129 3133 3136 3139 3143 3147 3151 3155 3157 3162 3169 3173 3177 3181 3185 3189 3193 3196 3200 3203 3205 3207 3209
3041 3043 3053 3057 3065 3070 3073 3071 3083 3085 3085 3085 3085 3090 3094 3096 3097 3102 3107 3112 3117 3123 3129 3130 3135 3139 3143 3147 3150 3153 3158 3164 3168 3173 3177 3182 3186 3189 3192 3196 3199 3202 3204 3206
3035 3044 3043 3050 3059 3062 3062 3075 3079 3079 3077 3075 3073 3074 3077 3084 3090 3095 3101 3107 3112 3117 3124 3127 3131 3135 3138 3144 3147 3151 3154 3159 3165 3170 3174 3178 3182 3186 3189 3192 3195 3198 3202 3204
3035 3036 3036 3043 3041 3048 3058 3062 3070 3076 3075 3070 3068 3064 3064 3070 3078 3087 3095 3102 3107 3113 3117 3122 3126 3131 3135 3140 3144 3147 3151 3155 3160 3165 3170 3173 3177 3181 3185 3187 3191 3195 3198 3201
3024 3027 3029 3027 3035 3046 3051 3055 3060 3063 3068 3068 3064 3062 3061 3063 3072 3081 3088 3095 3103 3110 3114 3118 3122 3128 3132 3135 3140 3143 3147 3151 3156 3161 3165 3169 3174 3177 3180 3183 3187 3191 3194 3197
3014 3013 3020 3023 3027 3031 3037 3047 3055 3062 3067 3064 3065 3064 3065 3067 3073 3079 3085 3091 3099 3106 3112 3115 3118 3124 3127 3130 3135 3138 3143 3147 3152 3157 3161 3165 3168 3172 3175 3179 3183 3187 3190 3193
3008 3009 3010 3009 3014 3023 3033 3042 3049 3054 3057 3062 3062 3066 3066 3069 3073 3078 3082 3088 3094 3102 3108 3111 3116 3119 3125 3128 3131 3134 3138 3143 3147 3152 3157 3160 3164 3167 3170 3174 3178 3181 3185 3188
3010 3010 3012 3012 3017 3019 3027 3035 3040 3044 3052 3056 3059 3063 3065 3068 3073 3078 3083 3087 3094 3099 3104 3109 3113 3115 3119 3123 3127 3131 3135 3138 3142 3147 3151 3155 3160 3164 3167 3169 3172 3175 3178 3181
3005 3007 3009 3008 3011 3017 3020 3025 3033 3040 3047 3054 3055 3060 3061 3067 3072 3077 3080 3084 3087 3091 3098 3102 3108 3112 3116 3121 3124 3128 3131 3134 3137 3141 3146 3151 3154 3158 3161 3164 3167 3170 3172 3175
3011 3010 3009 3007 3014 3015 3016 3016 3025 3035 3043 3049 3052 3057 3058 3064 3069 3075 3080 3084 3086 3090 3095 3099 3103 3108 3112 3116 3120 3123 3128 3132 3134 3137 3141 3145 3148 3150 3153 3157 3160 3163 3166 3169
3017 3014 3012 3011 3013 3013 3014 3018 3022 3030 3038 3046 3052 3055 3064 3066 3070 3073 3077 3082 3087 3090 3094 3097 3100 3103 3106 3111 3115 3119 3122 3126 3130 3132 3136 3138 3141 3144 3146 3148 3151 3155 3159 3162
3017 3017 3015 3011 3011 3013 3014 3016 3021 3026 3033 3043 3050 3053 3055 3060 3065 3070 3074 3079 3084 3088 3091 3094 3097 3101 3105 3108 3111 3113 3116 3119 3124 3127 3130 3133 3135 3137 3139 3141 3143 3148 3152 3154
3015 3018 3019 3014 3011 3010 3015 3017 3019 3025 3030 3033 3040 3046 3050 3057 3064 3067 3066 3069 3074 3078 3081 3084 3087 3092 3099 3103 3106 3108 3108 3110 3115 3121 3124 3127 3129 3131 3133 3134 3136 3140 3143 3146
3013 3017 3018 3019 3015 3010 3010 3012 3015 3022 3034 3029 3035 3044 3049 3053 3054 3054 3059 3063 3068 3073 3076 3079 3082 3086 3088 3091 3094 3097 3102 3104 3108 3114 3117 3120 3122 3124 3126 3127 3129 3131 3134 3138
3010 3015 3018 3018 3018 3020 3015 3014 3017 3023 3023 3025 3029 3033 3038 3043 3046 3048 3051 3057 3064 3069 3071 3075 3077 3080 3082 3084 3088 3092 3095 3100 3101 3103 3107 3111 3114 3116 3117 3119 3120 3123 3125 3128
3015 3014 3015 3018 3015 3017 3022 3026 3024 3024 3024 3025 3027 3030 3034 3038 3040 3043 3049 3056 3060 3064 3066 3066 3070 3073 3074 3076 3080 3083 3088 3091 3094 3096 3099 3102 3105 3107 3108 3110 3113 3113 3117 3120
3008 3011 3012 3015 3010 3013 3019 3022 3023 3023 3023 3024 3026 3029 3032 3034 3036 3042 3046 3052 3053 3057 3057 3062 3064 3066 3066 3070 3075 3078 3080 3084 3087 3089 3092 3094 3096 3099 3101 3102 3105 3106 3110 3112
3012 3010 3010 3009 3010 3010 3014 3017 3018 3018 3019 3021 3022 3025 3027 3030 3037 3041 3044 3047 3048 3050 3054 3057 3058 3059 3061 3065 3069 3072 3075 3078 3080 3082 3085 3087 3089 3092 3094 3095 3097 3099 3102 3104
3007 3008 3008 3005 3007 3006 3006 3011 3014 3013 3017 3018 3020 3022 3027 3032 3034 3036 3037 3039 3043 3046 3048 3050 3051 3052 3055 3059 3063 3065 3068 3071 3073 3075 3077 3080 3082 3084 3086 3088 3090 3092 3094 3095